EB2EMZ-3 Weather Reports


time (UTC)temp
F
wind
direction
speed
knots
gust
knots
rain 1hr
in
rain 24hr
in
rain mn
in
humidity
%
barometer
mb
20260510091414 69 202 0.0 0.0 0.00 0.52 0.00 73 1012.5
20260510090914 68 202 0.0 3.5 0.00 0.52 0.00 73 1012.6
20260510090414 68 202 3.5 3.5 0.00 0.52 0.00 73 1012.4
20260510085914 68 225 0.0 0.0 0.00 0.52 0.00 74 1012.5
20260510085414 68 225 0.0 0.0 0.00 0.52 0.00 74 1012.4
20260510084914 68 225 0.0 1.7 0.00 0.52 0.00 74 1012.4
20260510084414 68 225 1.7 3.5 0.00 0.52 0.00 74 1012.6
20260510083914 68 225 0.0 0.0 0.00 0.52 0.00 74 1012.6
20260510083414 68 225 0.0 0.0 0.00 0.52 0.00 74 1012.7
20260510082914 68 225 0.0 0.0 0.00 0.52 0.00 75 1012.7
20260510082414 68 225 0.0 0.0 0.00 0.52 0.00 75 1012.6
20260510081914 68 202 0.0 0.9 0.00 0.52 0.00 75 1012.7
20260510081414 68 247 0.0 0.0 0.00 0.52 0.00 75 1012.7
20260510080914 67 225 0.0 2.6 0.00 0.52 0.00 76 1012.6
20260510080414 67 225 2.6 2.6 0.00 0.52 0.00 76 1012.6
20260510075914 67 202 0.0 0.9 0.00 0.52 0.00 78 1012.7
20260510075414 67 315 0.0 0.0 0.00 0.52 0.00 78 1012.7
20260510074914 67 202 0.0 0.0 0.00 0.52 0.00 78 1012.7
20260510074414 67 247 0.0 0.0 0.00 0.52 0.00 79 1012.7
20260510073914 66 247 0.0 0.0 0.00 0.52 0.00 80 1012.7
20260510073414 66 225 0.0 0.0 0.00 0.52 0.00 80 1012.6
20260510072914 66 225 0.0 0.0 0.00 0.52 0.00 81 1012.6
20260510072414 64 0 0.0 0.0 0.00 0.52 0.00 83 1012.5
20260510071914 64 0 0.0 0.0 0.00 0.52 0.00 83 1012.4
20260510071414 63 0 0.0 0.0 0.00 0.52 0.00 83 1012.3
20260510070914 63 0 0.0 0.0 0.00 0.52 0.00 84 1012.4
20260510070414 62 0 0.0 0.0 0.00 0.52 0.00 85 1012.3
20260510065914 62 0 0.0 0.0 0.00 0.52 0.00 86 1012.5
20260510065414 61 0 0.0 0.0 0.00 0.52 0.00 87 1012.4
20260510064914 60 0 0.0 0.0 0.00 0.52 0.00 88 1012.2
20260510064414 60 0 0.0 0.0 0.00 0.52 0.00 89 1012.1
20260510063914 59 0 0.0 0.0 0.00 0.52 0.00 90 1012.4
20260510063414 59 0 0.0 0.0 0.00 0.52 0.00 90 1012.2
20260510062914 59 0 0.0 0.0 0.00 0.52 0.00 90 1012.3
20260510062415 58 0 0.0 0.0 0.00 0.52 0.00 90 1012.3
20260510061914 57 0 0.0 0.0 0.00 0.52 0.00 90 1012.3
20260510061414 57 0 0.0 0.0 0.00 0.52 0.00 90 1012.1
20260510060914 57 0 0.0 0.0 0.00 0.52 0.00 90 1012.1
20260510060415 57 0 0.0 0.0 0.00 0.52 0.00 91 1012.3
20260510055914 57 0 0.0 0.0 0.00 0.52 0.00 91 1012.1
20260510055414 57 315 0.0 0.0 0.00 0.52 0.00 91 1012.2
20260510054914 57 315 0.0 0.0 0.00 0.52 0.00 91 1012.3
20260510054414 57 22 0.0 0.0 0.00 0.52 0.00 91 1012.2
20260510053915 57 0 0.0 0.0 0.00 0.52 0.00 91 1012.3
20260510053415 57 0 0.0 0.0 0.00 0.52 0.00 91 1012.2
20260510052914 57 0 0.0 0.0 0.00 0.52 0.00 91 1012.2
20260510052414 57 0 0.0 0.0 0.00 0.52 0.00 91 1012.2
20260510051915 57 0 0.0 0.0 0.00 0.52 0.00 91 1012.1
20260510051415 57 0 0.0 0.0 0.00 0.52 0.00 91 1012.1
20260510050915 57 0 0.0 0.0 0.00 0.52 0.00 91 1012.1
20260510050415 57 0 0.0 0.0 0.00 0.52 0.00 91 1012.1
20260510045915 57 0 0.0 0.0 0.00 0.52 0.00 91 1012.0
20260510045415 57 0 0.0 0.0 0.00 0.52 0.00 91 1011.9
20260510044915 57 0 0.0 0.0 0.00 0.52 0.00 91 1011.9
20260510044415 57 0 0.0 0.0 0.00 0.52 0.00 91 1012.0
20260510043915 57 0 0.0 0.0 0.00 0.52 0.00 91 1011.9
20260510043415 57 0 0.0 0.0 0.00 0.52 0.00 91 1011.9
20260510042915 57 0 0.0 0.0 0.00 0.52 0.00 91 1012.0
20260510042415 57 0 0.0 0.0 0.00 0.52 0.00 91 1012.0
20260510041915 57 0 0.0 0.0 0.00 0.52 0.00 91 1011.9
20260510041415 57 0 0.0 0.0 0.00 0.52 0.00 91 1011.9
20260510040915 57 0 0.0 0.0 0.00 0.52 0.00 91 1012.2
20260510040415 57 0 0.0 0.0 0.00 0.52 0.00 91 1012.2
20260510035915 57 0 0.0 0.0 0.00 0.52 0.00 91 1012.1
20260510035415 57 0 0.0 0.0 0.00 0.52 0.00 91 1012.0
20260510034915 56 0 0.0 0.0 0.00 0.52 0.00 91 1012.2
20260510034415 56 0 0.0 0.0 0.00 0.52 0.00 91 1012.1
20260510033915 56 0 0.0 0.0 0.00 0.52 0.00 91 1012.0
20260510033415 56 0 0.0 0.0 0.00 0.52 0.00 91 1012.1
20260510032915 56 0 0.0 0.0 0.00 0.52 0.00 91 1012.1
20260510032415 56 0 0.0 0.0 0.00 0.52 0.00 91 1012.3
20260510031915 56 0 0.0 0.0 0.00 0.52 0.00 91 1012.2
20260510031415 56 0 0.0 0.0 0.00 0.52 0.00 91 1012.0
20260510030915 56 0 0.0 0.0 0.00 0.52 0.00 91 1012.1
20260510030415 56 0 0.0 0.0 0.00 0.52 0.00 91 1012.1
20260510025915 56 0 0.0 0.0 0.00 0.52 0.00 91 1012.1
20260510025415 56 0 0.0 0.0 0.00 0.52 0.00 91 1012.1
20260510024915 56 0 0.0 0.0 0.00 0.52 0.00 91 1012.0
20260510024415 56 0 0.0 0.0 0.00 0.52 0.00 91 1012.1
20260510023915 55 0 0.0 0.0 0.00 0.52 0.00 91 1012.1
20260510023415 55 0 0.0 0.0 0.00 0.52 0.00 91 1012.3
20260510022915 55 0 0.0 0.0 0.00 0.52 0.00 91 1012.1
20260510022415 55 0 0.0 0.0 0.00 0.52 0.00 91 1012.1
20260510021915 55 0 0.0 0.0 0.00 0.52 0.00 91 1012.3
20260510021415 55 0 0.0 0.0 0.00 0.52 0.00 91 1012.2
20260510020915 55 0 0.0 0.0 0.00 0.52 0.00 91 1012.3
20260510015915 55 0 0.0 0.0 0.00 0.52 0.00 91 1012.4
20260510015415 55 0 0.0 0.0 0.00 0.52 0.00 91 1012.4
20260510014915 55 0 0.0 0.0 0.00 0.52 0.00 91 1012.4
20260510014415 55 0 0.0 0.0 0.00 0.52 0.00 91 1012.4
20260510013915 55 0 0.0 0.0 0.00 0.52 0.00 91 1012.3
20260510013415 55 0 0.0 0.0 0.00 0.52 0.00 91 1012.3
20260510012915 55 0 0.0 0.0 0.00 0.52 0.00 91 1012.3
20260510012415 55 0 0.0 0.0 0.00 0.52 0.00 91 1012.4
20260510011915 55 0 0.0 0.0 0.00 0.52 0.00 91 1012.4
20260510011415 55 0 0.0 0.0 0.00 0.52 0.00 91 1012.5
20260510010915 55 0 0.0 0.0 0.00 0.52 0.00 91 1012.6
20260510010415 55 0 0.0 0.0 0.00 0.52 0.00 91 1012.6
20260510005915 55 0 0.0 0.0 0.00 0.52 0.00 91 1012.6
20260510005415 55 0 0.0 0.0 0.00 0.52 0.00 91 1012.7
20260510004915 55 0 0.0 0.0 0.00 0.52 0.00 91 1012.6
20260510004415 55 0 0.0 0.0 0.00 0.52 0.00 91 1012.6
20260510003915 56 0 0.0 0.0 0.00 0.52 0.00 91 1012.7
20260510003415 56 0 0.0 0.0 0.00 0.52 0.00 91 1012.8
20260510002915 56 0 0.0 0.0 0.00 0.52 0.00 91 1012.8
20260510002415 56 0 0.0 0.0 0.00 0.52 0.00 91 1012.8
20260510001915 56 0 0.0 0.0 0.00 0.52 0.00 91 1012.7
20260510001415 56 0 0.0 0.0 0.00 0.52 0.00 91 1012.7
20260510000915 56 0 0.0 0.0 0.00 0.52 0.00 91 1012.7
20260510000418 56 0 0.0 0.0 0.00 0.52 0.00 91 1012.6
20260509235916 56 0 0.0 0.0 0.00 0.52 0.00 91 1012.5
20260509235416 56 0 0.0 0.0 0.00 0.52 0.00 91 1012.5